Location: Carrières
(48.9495°N, 2.0407°E)
Time: 12:09:29
(UTC+00:00)

Transit 2A Rocket - Pass Details

Date: 22 April 2024
Orbit: 584 x 909 km, 66.7° (Epoch: 25 May)

Event Time Altitude Azimuth Distance (km) Brightness Sun altitude
Rises 20:27:24 0° 317° (NW) 3,321 10.2 -14.0°
Reaches altitude 10° 20:29:58 10° 308° (NW) 2,434 9.0 -14.3°
Maximum altitude 20:34:56 33° 247° (WSW) 1,431 6.6 -14.9°
Drops below altitude 10° 20:40:09 10° 186° (S) 2,557 7.4 -15.6°
Enters shadow 20:40:52 - 183° (S) 2,792 7.5 -15.7°
Sets 20:42:56 0° 177° (S) 3,513 - -15.9°
